,,,PA_Meas_PMT16A,,PR_Meas_QMR101_102,,RH_Meas_QMH101,,SR_Meas_QMS101,,TA_Meas_QMH101,,GenWind,,GenWind,
date,time,status,PA,status,PR,status,RH,status,SR,status,TA,status,DirAvg,status,SpdAvg,
2010-07-09, 00:00:04,VALID,1005.68,VALID,0,VALID,93.6445,VALID,0.100563,VALID,24.7529,VALID,343,VALID,0.865234,
2010-07-09, 00:01:04,VALID,1005.7,VALID,0,VALID,93.2325,VALID,0,VALID,24.751,VALID,10,VALID,0.730078,
2010-07-09, 00:02:04,VALID,1005.7,VALID,0,VALID,92.8435,VALID,0,VALID,24.7529,VALID,344,VALID,0.830859,
2010-07-09, 00:03:04,VALID,1005.68,VALID,0,VALID,92.8435,VALID,0,VALID,24.7529,VALID,348,VALID,0.717969,
2010-07-09, 00:04:04,VALID,1005.65,VALID,0,VALID,93.0342,VALID,0,VALID,24.7335,VALID,348,VALID,0.9,
2010-07-09, 00:05:04,VALID,1005.68,VALID,0,VALID,92.874,VALID,0,VALID,24.7335,VALID,14,VALID,0.262891,
2010-07-09, 00:06:04,VALID,1005.71,VALID,0,VALID,92.4849,VALID,0,VALID,24.7529,VALID,350,VALID,0.478125,
2010-07-09, 00:07:04,VALID,1005.74,VALID,0,VALID,91.7831,VALID,0,VALID,24.7335,VALID,353,VALID,0.619141,
2010-07-09, 00:08:04,VALID,1005.74,VALID,0,VALID,91.1651,VALID,0,VALID,24.7335,VALID,352,VALID,0.669922,
2010-07-09, 00:09:04,VALID,1005.76,VALID,0,VALID,90.776,VALID,0,VALID,24.714,VALID,336,VALID,0.465234,
2010-07-09, 00:10:04,VALID,1005.78,VALID,0,VALID,90.5014,VALID,0,VALID,24.6926,VALID,350,VALID,0.479297,
2010-07-09, 00:11:04,VALID,1005.78,VALID,0,VALID,90.4709,VALID,0,VALID,24.714,VALID,349,VALID,0.445313,
2010-07-09, 00:12:04,VALID,1005.81,VALID,0,VALID,90.5853,VALID,0,VALID,24.675,VALID,349,VALID,0.282031,
2010-07-09, 00:13:04,VALID,1005.82,VALID,0,VALID,90.7989,VALID,0,VALID,24.6361,VALID,349,VALID,0.339844,
2010-07-09, 00:14:04,VALID,1005.81,VALID,0,VALID,91.3253,VALID,0,VALID,24.5972,VALID,349,VALID,0.337109,
2010-07-09, 00:15:04,VALID,1005.85,VALID,0,VALID,92.0348,VALID,0,VALID,24.5582,VALID,349,VALID,0.181641,
2010-07-09, 00:16:04,VALID,1005.9,VALID,0,VALID,93.5148,VALID,0,VALID,24.5193,VALID,349,VALID,0.0328125,
2010-07-09, 00:17:04,VALID,1005.88,VALID,0,VALID,95.033,VALID,0,VALID,24.5017,VALID,349,VALID,0.0015625,
2010-07-09, 00:18:04,VALID,1005.82,VALID,0,VALID,97.0012,VALID,0,VALID,24.4414,VALID,349,VALID,0.217187,
2010-07-09, 00:19:04,VALID,1005.87,VALID,0,VALID,98.466,VALID,0,VALID,24.3812,VALID,349,VALID,0,
2010-07-09, 00:20:04,VALID,1005.87,VALID,0,VALID,99.3891,VALID,0,VALID,24.3636,VALID,349,VALID,0.31875,
2010-07-09, 00:21:04,VALID,1005.88,VALID,0,VALID,100.038,VALID,0,VALID,24.3246,VALID,349,VALID,0.382422,
2010-07-09, 00:22:04,VALID,1005.92,VALID,0,VALID,100.503,VALID,0,VALID,24.2662,VALID,349,VALID,0.392969,
2010-07-09, 00:23:04,VALID,1005.91,VALID,0,VALID,100.785,VALID,0,VALID,24.2078,VALID,349,VALID,0.401172,
2010-07-09, 00:24:04,VALID,1005.94,VALID,0,VALID,101.045,VALID,0,VALID,24.1707,VALID,349,VALID,0.442969,
2010-07-09, 00:25:04,VALID,1005.94,VALID,0,VALID,101.281,VALID,0,VALID,24.1105,VALID,349,VALID,0.435937,
2010-07-09, 00:26:04,VALID,1005.91,VALID,0,VALID,101.464,VALID,0,VALID,24.0539,VALID,349,VALID,0.548437,
2010-07-09, 00:27:04,VALID,1005.91,VALID,0,VALID,101.617,VALID,0,VALID,23.953,VALID,349,VALID,0.314844,
2010-07-09, 00:28:04,VALID,1005.93,VALID,0,VALID,101.739,VALID,0,VALID,23.9353,VALID,349,VALID,0.335938,
2010-07-09, 00:29:04,VALID,1005.9,VALID,0,VALID,101.884,VALID,0,VALID,23.8964,VALID,349,VALID,0.0121094,
2010-07-09, 00:30:04,VALID,1005.91,VALID,0,VALID,101.968,VALID,0,VALID,23.8575,VALID,349,VALID,0,
2010-07-09, 00:31:04,VALID,1005.87,VALID,0,VALID,102.105,VALID,0,VALID,23.838,VALID,349,VALID,0,
2010-07-09, 00:32:04,VALID,1005.85,VALID,0,VALID,102.196,VALID,0,VALID,23.8185,VALID,349,VALID,0.378906,
2010-07-09, 00:33:04,VALID,1005.83,VALID,0,VALID,102.242,VALID,0,VALID,23.7796,VALID,349,VALID,0.401172,
2010-07-09, 00:34:04,VALID,1005.84,VALID,0,VALID,102.296,VALID,0,VALID,23.7601,VALID,349,VALID,0.404687,
2010-07-09, 00:35:04,VALID,1005.8,VALID,0,VALID,102.349,VALID,0,VALID,23.7619,VALID,349,VALID,0.409375,
2010-07-09, 00:36:04,VALID,1005.81,VALID,0,VALID,102.41,VALID,0,VALID,23.7017,VALID,349,VALID,0.3625,
2010-07-09, 00:37:04,VALID,1005.8,VALID,0,VALID,102.425,VALID,0,VALID,23.6628,VALID,349,VALID,0,
2010-07-09, 00:38:04,VALID,1005.78,VALID,0,VALID,102.471,VALID,0,VALID,23.6434,VALID,349,VALID,0,
2010-07-09, 00:39:04,VALID,1005.79,VALID,0,VALID,102.509,VALID,0.100563,VALID,23.6434,VALID,349,VALID,0,
2010-07-09, 00:40:04,VALID,1005.78,VALID,0,VALID,102.57,VALID,0,VALID,23.6239,VALID,349,VALID,0,
2010-07-09, 00:41:04,VALID,1005.77,VALID,0,VALID,102.563,VALID,0,VALID,23.585,VALID,349,VALID,0,
2010-07-09, 00:42:04,VALID,1005.75,VALID,0,VALID,102.578,VALID,0,VALID,23.5655,VALID,349,VALID,0,
2010-07-09, 00:43:04,VALID,1005.76,VALID,0,VALID,102.616,VALID,0,VALID,23.5655,VALID,349,VALID,0,
2010-07-09, 00:44:04,VALID,1005.74,VALID,0,VALID,102.631,VALID,0,VALID,23.585,VALID,349,VALID,0,
2010-07-09, 00:45:04,VALID,1005.73,VALID,0,VALID,102.669,VALID,0,VALID,23.5655,VALID,349,VALID,0,
2010-07-09, 00:46:04,VALID,1005.73,VALID,0,VALID,102.708,VALID,0,VALID,23.546,VALID,349,VALID,0,
2010-07-09, 00:47:04,VALID,1005.73,VALID,0,VALID,102.692,VALID,0,VALID,23.5443,VALID,311,VALID,0,
2010-07-09, 00:48:04,VALID,1005.71,VALID,0,VALID,102.7,VALID,0,VALID,23.585,VALID,311,VALID,0,
2010-07-09, 00:49:04,VALID,1005.71,VALID,0,VALID,102.692,VALID,0.100563,VALID,23.5637,VALID,311,VALID,0,
2010-07-09, 00:50:04,VALID,1005.68,VALID,0,VALID,102.685,VALID,0,VALID,23.6239,VALID,311,VALID,0,
2010-07-09, 00:51:04,VALID,1005.69,VALID,0,VALID,102.723,VALID,0,VALID,23.6026,VALID,311,VALID,0,
2010-07-09, 00:52:04,VALID,1005.65,VALID,0,VALID,102.723,VALID,0,VALID,23.6239,VALID,311,VALID,0,
2010-07-09, 00:53:04,VALID,1005.6,VALID,0,VALID,102.731,VALID,0,VALID,23.6452,VALID,311,VALID,0,
2010-07-09, 00:54:04,VALID,1005.56,VALID,0,VALID,102.746,VALID,0,VALID,23.6434,VALID,311,VALID,0,
2010-07-09, 00:55:04,VALID,1005.52,VALID,0,VALID,102.738,VALID,0,VALID,23.6646,VALID,311,VALID,0,
2010-07-09, 00:56:04,VALID,1005.46,VALID,0,VALID,102.753,VALID,0,VALID,23.6239,VALID,312,VALID,0,
2010-07-09, 00:57:04,VALID,1005.43,VALID,0,VALID,102.784,VALID,0,VALID,23.6434,VALID,314,VALID,0,
2010-07-09, 00:58:04,VALID,1005.43,VALID,0,VALID,102.776,VALID,0,VALID,23.6239,VALID,323,VALID,0,
2010-07-09, 00:59:04,VALID,1005.38,VALID,0,VALID,102.792,VALID,0.100563,VALID,23.6239,VALID,332,VALID,0,
2010-07-09, 01:00:04,VALID,1005.38,VALID,0,VALID,102.769,VALID,0,VALID,23.5832,VALID,332,VALID,0,
2010-07-09, 01:01:04,VALID,1005.37,VALID,0,VALID,102.799,VALID,0,VALID,23.585,VALID,336,VALID,0,
2010-07-09, 01:02:04,VALID,1005.36,VALID,0,VALID,102.776,VALID,0,VALID,23.5248,VALID,336,VALID,0,
2010-07-09, 01:03:04,VALID,1005.31,VALID,0,VALID,102.799,VALID,0,VALID,23.5266,VALID,348,VALID,0,
2010-07-09, 01:04:04,VALID,1005.28,VALID,0,VALID,102.784,VALID,0,VALID,23.4859,VALID,348,VALID,0,
2010-07-09, 01:05:04,VALID,1005.23,VALID,0,VALID,102.799,VALID,0,VALID,23.4682,VALID,348,VALID,0,
2010-07-09, 01:06:04,VALID,1005.26,VALID,0,VALID,102.761,VALID,0.100563,VALID,23.4487,VALID,348,VALID,0,
2010-07-09, 01:07:04,VALID,1005.24,VALID,0,VALID,102.784,VALID,0,VALID,23.4293,VALID,348,VALID,0,
2010-07-09, 01:08:04,VALID,1005.27,VALID,0,VALID,102.769,VALID,0,VALID,23.4293,VALID,348,VALID,0,
2010-07-09, 01:09:04,VALID,1005.29,VALID,0,VALID,102.738,VALID,0,VALID,23.4293,VALID,344,VALID,0,
2010-07-09, 01:10:04,VALID,1005.32,VALID,0,VALID,102.723,VALID,0,VALID,23.4487,VALID,344,VALID,0,
2010-07-09, 01:11:04,VALID,1005.32,VALID,0,VALID,102.685,VALID,0,VALID,23.4894,VALID,344,VALID,0,
2010-07-09, 01:12:04,VALID,1005.32,VALID,0,VALID,102.7,VALID,0,VALID,23.4877,VALID,344,VALID,0,
2010-07-09, 01:13:04,VALID,1005.33,VALID,0,VALID,102.708,VALID,0,VALID,23.5071,VALID,344,VALID,0,
2010-07-09, 01:14:04,VALID,1005.33,VALID,0,VALID,102.608,VALID,0,VALID,23.5443,VALID,344,VALID,0.490234,
2010-07-09, 01:15:04,VALID,1005.33,VALID,0,VALID,102.669,VALID,0,VALID,23.585,VALID,357,VALID,0.676953,
2010-07-09, 01:16:04,VALID,1005.29,VALID,0,VALID,102.692,VALID,0,VALID,23.585,VALID,357,VALID,0.446875,
2010-07-09, 01:17:04,VALID,1005.3,VALID,0,VALID,102.7,VALID,0,VALID,23.6257,VALID,338,VALID,0.635938,
2010-07-09, 01:18:04,VALID,1005.32,VALID,0,VALID,102.738,VALID,0,VALID,23.6239,VALID,338,VALID,0.44375,
2010-07-09, 01:19:04,VALID,1005.3,VALID,0,VALID,102.784,VALID,0,VALID,23.6239,VALID,347,VALID,0.448828,
2010-07-09, 01:20:04,VALID,1005.32,VALID,0,VALID,102.792,VALID,0,VALID,23.6239,VALID,342,VALID,0.524609,
2010-07-09, 01:21:04,VALID,1005.32,VALID,0,VALID,102.784,VALID,0,VALID,23.6841,VALID,332,VALID,0.673437,
2010-07-09, 01:22:04,VALID,1005.3,VALID,0,VALID,102.746,VALID,0,VALID,23.7212,VALID,344,VALID,0.503125,
2010-07-09, 01:23:04,VALID,1005.26,VALID,0,VALID,102.807,VALID,0,VALID,23.7407,VALID,344,VALID,0.248437,
2010-07-09, 01:24:04,VALID,1005.25,VALID,0,VALID,102.83,VALID,0,VALID,23.7601,VALID,345,VALID,0.109766,
2010-07-09, 01:25:04,VALID,1005.26,VALID,0,VALID,102.875,VALID,0,VALID,23.7796,VALID,345,VALID,0,
2010-07-09, 01:26:04,VALID,1005.25,VALID,0,VALID,102.853,VALID,0,VALID,23.7991,VALID,345,VALID,0.317187,
2010-07-09, 01:27:04,VALID,1005.28,VALID,0,VALID,102.875,VALID,0,VALID,23.8185,VALID,345,VALID,0.00664063,
2010-07-09, 01:28:04,VALID,1005.26,VALID,0,VALID,102.853,VALID,0,VALID,23.8362,VALID,345,VALID,0.2625,
2010-07-09, 01:29:04,VALID,1005.28,VALID,0,VALID,102.853,VALID,0,VALID,23.9159,VALID,345,VALID,0.00820312,
2010-07-09, 01:30:04,VALID,1005.29,VALID,0,VALID,102.845,VALID,0,VALID,23.9353,VALID,345,VALID,0.00585938,
2010-07-09, 01:31:04,VALID,1005.3,VALID,0,VALID,102.822,VALID,0,VALID,23.9353,VALID,345,VALID,0,
2010-07-09, 01:32:04,VALID,1005.32,VALID,0,VALID,102.784,VALID,0,VALID,23.9353,VALID,345,VALID,0,
2010-07-09, 01:33:04,VALID,1005.27,VALID,0,VALID,102.738,VALID,0,VALID,23.9761,VALID,345,VALID,0,
2010-07-09, 01:34:04,VALID,1005.31,VALID,0,VALID,102.708,VALID,0,VALID,23.9353,VALID,345,VALID,0,
2010-07-09, 01:35:04,VALID,1005.28,VALID,0,VALID,102.669,VALID,0,VALID,23.9548,VALID,345,VALID,0,
2010-07-09, 01:36:04,VALID,1005.25,VALID,0,VALID,102.654,VALID,0,VALID,23.9548,VALID,345,VALID,0,
2010-07-09, 01:37:04,VALID,1005.2,VALID,0,VALID,102.631,VALID,0.100563,VALID,23.9742,VALID,348,VALID,0,
2010-07-09, 01:38:04,VALID,1005.21,VALID,0,VALID,102.616,VALID,0,VALID,23.9937,VALID,348,VALID,0,
2010-07-09, 01:39:04,VALID,1005.22,VALID,0,VALID,102.547,VALID,0,VALID,23.9724,VALID,349,VALID,0,
2010-07-09, 01:40:04,VALID,1005.21,VALID,0,VALID,102.456,VALID,0,VALID,23.9955,VALID,349,VALID,0,
2010-07-09, 01:41:04,VALID,1005.21,VALID,0,VALID,102.357,VALID,0,VALID,23.9159,VALID,350,VALID,0,
2010-07-09, 01:42:04,VALID,1005.21,VALID,0,VALID,102.296,VALID,0,VALID,23.8575,VALID,350,VALID,0,
2010-07-09, 01:43:04,VALID,1005.22,VALID,0,VALID,102.395,VALID,0.100563,VALID,23.838,VALID,350,VALID,0,
2010-07-09, 01:44:04,VALID,1005.2,VALID,0,VALID,102.494,VALID,0,VALID,23.838,VALID,350,VALID,0,
2010-07-09, 01:45:04,VALID,1005.18,VALID,0,VALID,102.525,VALID,0.100563,VALID,23.838,VALID,350,VALID,0,
2010-07-09, 01:46:04,VALID,1005.14,VALID,0,VALID,102.563,VALID,0,VALID,23.8362,VALID,350,VALID,0,
2010-07-09, 01:47:04,VALID,1005.14,VALID,0,VALID,102.593,VALID,0,VALID,23.7973,VALID,350,VALID,0,
2010-07-09, 01:48:04,VALID,1005.1,VALID,0,VALID,102.57,VALID,0.100563,VALID,23.8167,VALID,351,VALID,0.626953,
2010-07-09, 01:49:05,VALID,1005.05,VALID,0,VALID,102.578,VALID,0.100563,VALID,23.7973,VALID,351,VALID,0.713672,
2010-07-09, 01:50:05,VALID,1005.03,VALID,0,VALID,102.525,VALID,0,VALID,23.7583,VALID,347,VALID,0.651953,
2010-07-09, 01:51:05,VALID,1004.98,VALID,0,VALID,102.509,VALID,0.100563,VALID,23.7601,VALID,346,VALID,0.636719,
2010-07-09, 01:52:05,VALID,1004.96,VALID,0,VALID,102.555,VALID,0.100563,VALID,23.7407,VALID,344,VALID,0.724609,
2010-07-09, 01:53:05,VALID,1004.93,VALID,0,VALID,102.601,VALID,0.100563,VALID,23.7176,VALID,352,VALID,0.7,
2010-07-09, 01:54:05,VALID,1004.9,VALID,0,VALID,102.639,VALID,0,VALID,23.7407,VALID,354,VALID,0.604688,
2010-07-09, 01:55:05,VALID,1004.89,VALID,0,VALID,102.669,VALID,0.100563,VALID,23.7601,VALID,356,VALID,0.793359,
2010-07-09, 01:56:05,VALID,1004.87,VALID,0,VALID,102.677,VALID,0.100563,VALID,23.7991,VALID,345,VALID,0.474219,
2010-07-09, 01:57:05,VALID,1004.86,VALID,0,VALID,102.692,VALID,0,VALID,23.7973,VALID,346,VALID,0.380859,
2010-07-09, 01:58:05,VALID,1004.88,VALID,0,VALID,102.654,VALID,0,VALID,23.8575,VALID,350,VALID,0.378906,
2010-07-09, 01:59:05,VALID,1004.86,VALID,0,VALID,102.608,VALID,0.100563,VALID,23.8556,VALID,348,VALID,0.186719,
2010-07-09, 02:00:05,VALID,1004.87,VALID,0,VALID,102.547,VALID,0,VALID,23.9159,VALID,345,VALID,0.754687,
2010-07-09, 02:01:05,VALID,1004.85,VALID,0,VALID,102.425,VALID,0.100563,VALID,23.9548,VALID,349,VALID,0.895312,
2010-07-09, 02:02:05,VALID,1004.88,VALID,0,VALID,102.219,VALID,0,VALID,24.0326,VALID,352,VALID,0.543359,
2010-07-09, 02:03:05,VALID,1004.91,VALID,0,VALID,101.937,VALID,0.100563,VALID,24.091,VALID,360,VALID,0.485156,
2010-07-09, 02:04:05,VALID,1004.94,VALID,0,VALID,101.609,VALID,0,VALID,24.13,VALID,357,VALID,0.701563,
2010-07-09, 02:05:05,VALID,1004.93,VALID,0,VALID,101.289,VALID,0,VALID,24.2097,VALID,344,VALID,0.610156,
2010-07-09, 02:06:05,VALID,1004.95,VALID,0,VALID,100.892,VALID,0.100563,VALID,24.2078,VALID,346,VALID,0.885156,
2010-07-09, 02:07:05,VALID,1004.95,VALID,0,VALID,100.274,VALID,0,VALID,24.2662,VALID,345,VALID,0.775,
2010-07-09, 02:08:05,VALID,1004.97,VALID,0,VALID,94.0717,VALID,0,VALID,24.3246,VALID,293,VALID,0.00585938,
2010-07-09, 02:09:05,VALID,1004.96,VALID,0,VALID,92.2103,VALID,0.100563,VALID,24.3422,VALID,348,VALID,0.651953,
2010-07-09, 02:10:05,VALID,1004.95,VALID,0,VALID,90.9439,VALID,0,VALID,24.383,VALID,280,VALID,0.213281,
2010-07-09, 02:11:05,VALID,1004.98,VALID,0,VALID,90.3488,VALID,0.100563,VALID,24.422,VALID,280,VALID,0,
2010-07-09, 02:12:05,VALID,1004.98,VALID,0,VALID,89.9369,VALID,0,VALID,24.422,VALID,358,VALID,0.778906,
2010-07-09, 02:13:05,VALID,1005.03,VALID,0,VALID,89.5173,VALID,0.100563,VALID,24.4609,VALID,357,VALID,0.550781,
2010-07-09, 02:14:05,VALID,1005.07,VALID,0,VALID,89.3571,VALID,0,VALID,24.4609,VALID,346,VALID,0.576953,
2010-07-09, 02:15:05,VALID,1005.1,VALID,0,VALID,88.9985,VALID,0,VALID,24.4804,VALID,347,VALID,0.561328,
2010-07-09, 02:16:05,VALID,1005.12,VALID,0,VALID,88.7086,VALID,0,VALID,24.4804,VALID,347,VALID,0.448438,
2010-07-09, 02:17:05,VALID,1005.11,VALID,0,VALID,88.4416,VALID,0,VALID,24.4785,VALID,347,VALID,0.341406,
2010-07-09, 02:18:05,VALID,1005.11,VALID,0,VALID,88.5255,VALID,0.100563,VALID,24.4998,VALID,347,VALID,0.654688,
2010-07-09, 02:19:05,VALID,1005.11,VALID,0,VALID,88.5332,VALID,0.100563,VALID,24.4201,VALID,321,VALID,0.729688,
2010-07-09, 02:20:05,VALID,1005.09,VALID,0,VALID,88.5255,VALID,0.100563,VALID,24.4414,VALID,341,VALID,0.342969,
2010-07-09, 02:21:05,VALID,1005.07,VALID,0,VALID,88.5637,VALID,0.100563,VALID,24.4609,VALID,348,VALID,0.641797,
2010-07-09, 02:22:05,VALID,1005.08,VALID,0,VALID,88.64,VALID,0.100563,VALID,24.422,VALID,348,VALID,0.300781,
2010-07-09, 02:23:05,VALID,1005.08,VALID,0,VALID,88.762,VALID,0.100563,VALID,24.422,VALID,348,VALID,0,
2010-07-09, 02:24:05,VALID,1005.08,VALID,0,VALID,88.8688,VALID,0,VALID,24.3422,VALID,355,VALID,0.991797,
2010-07-09, 02:25:05,VALID,1005.11,VALID,0,VALID,89.1053,VALID,0.100563,VALID,24.3441,VALID,4,VALID,0.688672,
2010-07-09, 02:26:05,VALID,1005.13,VALID,0,VALID,89.6393,VALID,0,VALID,24.2468,VALID,3,VALID,0.2875,
2010-07-09, 02:27:05,VALID,1005.14,VALID,0,VALID,90.3107,VALID,0.100563,VALID,24.206,VALID,323,VALID,0.440234,
2010-07-09, 02:28:05,VALID,1005.18,VALID,0,VALID,90.448,VALID,0,VALID,24.2468,VALID,305,VALID,0,
2010-07-09, 02:29:05,VALID,1005.2,VALID,0,VALID,90.6082,VALID,0,VALID,24.2468,VALID,305,VALID,0,
2010-07-09, 02:30:05,VALID,1005.18,VALID,0,VALID,90.5243,VALID,0,VALID,24.2273,VALID,305,VALID,0,
2010-07-09, 02:31:05,VALID,1005.13,VALID,0,VALID,90.6006,VALID,0,VALID,24.2273,VALID,293,VALID,0,
2010-07-09, 02:32:05,VALID,1005.11,VALID,0,VALID,90.8142,VALID,0.100563,VALID,24.2468,VALID,304,VALID,0,
2010-07-09, 02:33:05,VALID,1005.07,VALID,0,VALID,90.8523,VALID,0,VALID,24.2255,VALID,325,VALID,0.581641,
2010-07-09, 02:34:05,VALID,1005.03,VALID,0,VALID,91.3177,VALID,0,VALID,24.2078,VALID,345,VALID,0.684766,
2010-07-09, 02:35:05,VALID,1004.99,VALID,0,VALID,93.7742,VALID,0.100563,VALID,24.1689,VALID,353,VALID,0.915234,
2010-07-09, 02:36:05,VALID,1004.94,VALID,0,VALID,96.162,VALID,0.100563,VALID,24.1105,VALID,354,VALID,0.780078,
2010-07-09, 02:37:05,VALID,1004.9,VALID,0,VALID,97.9777,VALID,0.100563,VALID,24.0521,VALID,353,VALID,0.867188,
2010-07-09, 02:38:05,VALID,1004.88,VALID,0,VALID,99.0915,VALID,0,VALID,24.0132,VALID,350,VALID,0.458984,
2010-07-09, 02:39:05,VALID,1004.84,VALID,0,VALID,99.8315,VALID,0,VALID,23.9937,VALID,357,VALID,0.507422,
2010-07-09, 02:40:05,VALID,1004.8,VALID,0,VALID,100.015,VALID,0,VALID,24.0326,VALID,358,VALID,0.71875,
2010-07-09, 02:41:05,VALID,1004.79,VALID,0,VALID,99.4425,VALID,0.100563,VALID,24.0521,VALID,346,VALID,0.632422,
2010-07-09, 02:42:05,VALID,1004.78,VALID,0,VALID,97.9243,VALID,0.100563,VALID,24.13,VALID,350,VALID,0.496094,
2010-07-09, 02:43:05,VALID,1004.81,VALID,0,VALID,95.3152,VALID,0,VALID,24.1281,VALID,340,VALID,0.615234,
2010-07-09, 02:44:05,VALID,1004.81,VALID,0,VALID,92.7977,VALID,0,VALID,24.1884,VALID,338,VALID,0.0078125,
2010-07-09, 02:45:05,VALID,1004.81,VALID,0,VALID,91.9585,VALID,0,VALID,24.2291,VALID,338,VALID,0,
2010-07-09, 02:46:05,VALID,1004.78,VALID,0,VALID,91.6,VALID,0,VALID,24.2273,VALID,354,VALID,0.592578,
2010-07-09, 02:47:05,VALID,1004.75,VALID,0,VALID,91.1956,VALID,0,VALID,24.2468,VALID,316,VALID,0.127734,
2010-07-09, 02:48:05,VALID,1004.68,VALID,0,VALID,90.6845,VALID,0,VALID,24.3052,VALID,2,VALID,0.566016,
2010-07-09, 02:49:05,VALID,1004.68,VALID,0,VALID,90.0513,VALID,0,VALID,24.3052,VALID,358,VALID,1.01758,
2010-07-09, 02:50:05,VALID,1004.67,VALID,0,VALID,89.8453,VALID,0,VALID,24.3246,VALID,357,VALID,0.656641,
2010-07-09, 02:51:05,VALID,1004.67,VALID,0,VALID,89.5631,VALID,0,VALID,24.3441,VALID,358,VALID,0.855859,
2010-07-09, 02:52:05,VALID,1004.64,VALID,0,VALID,89.029,VALID,0.100563,VALID,24.3617,VALID,360,VALID,0.882813,
2010-07-09, 02:53:05,VALID,1004.61,VALID,0,VALID,88.762,VALID,0,VALID,24.4414,VALID,358,VALID,0.729297,
2010-07-09, 02:54:05,VALID,1004.63,VALID,0,VALID,88.6628,VALID,0,VALID,24.4025,VALID,335,VALID,0.571484,
2010-07-09, 02:55:05,VALID,1004.62,VALID,0,VALID,88.6934,VALID,0.100563,VALID,24.4025,VALID,318,VALID,0.610937,
2010-07-09, 02:56:05,VALID,1004.61,VALID,0,VALID,88.6934,VALID,0.100563,VALID,24.4025,VALID,282,VALID,0.0929687,
2010-07-09, 02:57:05,VALID,1004.59,VALID,0,VALID,88.5789,VALID,0.100563,VALID,24.3812,VALID,349,VALID,0.479688,
2010-07-09, 02:58:05,VALID,1004.59,VALID,0,VALID,88.3577,VALID,0.100563,VALID,24.4414,VALID,288,VALID,1.06133,
2010-07-09, 02:59:05,VALID,1004.61,VALID,0,VALID,88.0296,VALID,0,VALID,24.459,VALID,286,VALID,0.203516,
2010-07-09, 03:00:05,VALID,1004.6,VALID,0,VALID,87.7779,VALID,0.100563,VALID,24.5388,VALID,286,VALID,0.0539063,
2010-07-09, 03:01:05,VALID,1004.63,VALID,0,VALID,87.7398,VALID,0.100563,VALID,24.5369,VALID,286,VALID,0.0605469,
2010-07-09, 03:02:05,VALID,1004.63,VALID,0,VALID,87.7169,VALID,0.100563,VALID,24.5972,VALID,286,VALID,0.0648438,
2010-07-09, 03:03:05,VALID,1004.63,VALID,0,VALID,87.7474,VALID,0,VALID,24.5777,VALID,343,VALID,0.635547,
2010-07-09, 03:04:05,VALID,1004.63,VALID,0,VALID,87.9076,VALID,0,VALID,24.4785,VALID,340,VALID,0.447266,
2010-07-09, 03:05:05,VALID,1004.64,VALID,0,VALID,88.2127,VALID,0,VALID,24.4804,VALID,352,VALID,0.935547,
2010-07-09, 03:06:05,VALID,1004.6,VALID,0,VALID,88.3195,VALID,0,VALID,24.4628,VALID,352,VALID,0.704687,
2010-07-09, 03:07:05,VALID,1004.62,VALID,0,VALID,88.6628,VALID,0.100563,VALID,24.3636,VALID,352,VALID,0.810547,
2010-07-09, 03:08:05,VALID,1004.6,VALID,0,VALID,89.235,VALID,0,VALID,24.2857,VALID,349,VALID,0.80625,
2010-07-09, 03:09:05,VALID,1004.58,VALID,0,VALID,89.9826,VALID,0.100563,VALID,24.2273,VALID,355,VALID,0.654297,
2010-07-09, 03:10:05,VALID,1004.62,VALID,0,VALID,90.921,VALID,0.100563,VALID,24.1494,VALID,355,VALID,0.766797,
2010-07-09, 03:11:05,VALID,1004.6,VALID,0,VALID,93.553,VALID,0.100563,VALID,24.091,VALID,353,VALID,0.603125,
2010-07-09, 03:12:05,VALID,1004.61,VALID,0,VALID,98.26,VALID,0.100563,VALID,24.0521,VALID,360,VALID,0.641406,
2010-07-09, 03:13:05,VALID,1004.6,VALID,0,VALID,98.9695,VALID,0,VALID,23.9937,VALID,358,VALID,0.603516,
2010-07-09, 03:14:05,VALID,1004.6,VALID,0,VALID,99.6561,VALID,0,VALID,23.9742,VALID,337,VALID,0.515625,
2010-07-09, 03:15:05,VALID,1004.66,VALID,0,VALID,100.198,VALID,0.100563,VALID,23.914,VALID,330,VALID,0.491406,
2010-07-09, 03:16:05,VALID,1004.66,VALID,0,VALID,100.61,VALID,0.100563,VALID,23.9159,VALID,350,VALID,0.576953,
2010-07-09, 03:17:05,VALID,1004.68,VALID,0,VALID,101.075,VALID,0,VALID,23.9159,VALID,340,VALID,0.646875,
2010-07-09, 03:18:05,VALID,1004.7,VALID,0,VALID,101.38,VALID,0.100563,VALID,23.9548,VALID,320,VALID,0.735547,
2010-07-09, 03:19:05,VALID,1004.7,VALID,0,VALID,101.456,VALID,0.100563,VALID,24.0326,VALID,355,VALID,0.590625,
2010-07-09, 03:20:05,VALID,1004.73,VALID,0,VALID,101.273,VALID,0.100563,VALID,24.0892,VALID,349,VALID,0.776563,
2010-07-09, 03:21:05,VALID,1004.71,VALID,0,VALID,101.052,VALID,0,VALID,24.1689,VALID,347,VALID,0.688281,
2010-07-09, 03:22:05,VALID,1004.71,VALID,0,VALID,100.457,VALID,0,VALID,24.2468,VALID,347,VALID,0.46875,
2010-07-09, 03:23:05,VALID,1004.69,VALID,0,VALID,98.9466,VALID,0,VALID,24.3052,VALID,350,VALID,0.369922,
2010-07-09, 03:24:05,VALID,1004.68,VALID,0,VALID,96.2841,VALID,0,VALID,24.3441,VALID,353,VALID,0.830078,
2010-07-09, 03:25:05,VALID,1004.71,VALID,0,VALID,93.8963,VALID,0,VALID,24.383,VALID,350,VALID,0.572266,
2010-07-09, 03:26:05,VALID,1004.74,VALID,0,VALID,92.2789,VALID,0.100563,VALID,24.4006,VALID,350,VALID,0.257422,
2010-07-09, 03:27:05,VALID,1004.75,VALID,0,VALID,91.5771,VALID,0.100563,VALID,24.3617,VALID,348,VALID,0.459766,
2010-07-09, 03:28:05,VALID,1004.76,VALID,0,VALID,91.0202,VALID,0.100563,VALID,24.383,VALID,348,VALID,0.353125,
2010-07-09, 03:29:05,VALID,1004.74,VALID,0,VALID,91.455,VALID,0,VALID,24.3441,VALID,345,VALID,0.564844,
2010-07-09, 03:30:05,VALID,1004.72,VALID,0,VALID,91.9662,VALID,0,VALID,24.3246,VALID,344,VALID,0.291016,
2010-07-09, 03:31:05,VALID,1004.7,VALID,0,VALID,92.134,VALID,0.100563,VALID,24.3246,VALID,344,VALID,0.319922,
2010-07-09, 03:32:05,VALID,1004.69,VALID,0,VALID,92.8282,VALID,0.100563,VALID,24.3052,VALID,344,VALID,0.118359,
2010-07-09, 03:33:05,VALID,1004.67,VALID,0,VALID,93.7742,VALID,0.100563,VALID,24.3052,VALID,344,VALID,0.226563,
2010-07-09, 03:34:05,VALID,1004.66,VALID,0,VALID,94.9872,VALID,0.100563,VALID,24.3052,VALID,344,VALID,0.434766,
2010-07-09, 03:35:05,VALID,1004.63,VALID,0,VALID,94.9262,VALID,0.100563,VALID,24.2644,VALID,344,VALID,0.330078,
2010-07-09, 03:36:05,VALID,1004.63,VALID,0,VALID,95.3839,VALID,0.100563,VALID,24.2644,VALID,344,VALID,0.254687,
2010-07-09, 03:37:05,VALID,1004.6,VALID,0,VALID,95.8721,VALID,0.100563,VALID,24.2644,VALID,352,VALID,0.636719,
2010-07-09, 03:38:05,VALID,1004.64,VALID,0,VALID,95.1245,VALID,0.100563,VALID,24.2255,VALID,357,VALID,0.672656,
2010-07-09, 03:39:05,VALID,1004.63,VALID,0,VALID,97.726,VALID,0.100563,VALID,24.1689,VALID,357,VALID,1.00039,
2010-07-09, 03:40:05,VALID,1004.63,VALID,0,VALID,99.4119,VALID,0.100563,VALID,24.1671,VALID,347,VALID,0.308984,
2010-07-09, 03:41:05,VALID,1004.64,VALID,0,VALID,99.3738,VALID,0,VALID,24.2291,VALID,347,VALID,0.374219,
2010-07-09, 03:42:05,VALID,1004.68,VALID,0,VALID,99.4882,VALID,0.100563,VALID,24.2078,VALID,353,VALID,0.978516,
2010-07-09, 03:43:05,VALID,1004.69,VALID,0,VALID,99.1602,VALID,0.100563,VALID,24.2255,VALID,351,VALID,0.740625,
2010-07-09, 03:44:05,VALID,1004.74,VALID,0,VALID,98.5194,VALID,0.100563,VALID,24.2255,VALID,351,VALID,0.972656,